| time (UTC) | temp C | wind direction | speed KPH | gust KPH | rain 1hr cm | rain 24hr cm | rain mn cm | humidity % | barometer mb |
| 20260506001507 | 0 | 265 | 0.0 | 0.0 | 0.00 | 0.00 | 0.00 | 62 | 1013.4 |
| 20260506000005 | 0 | 168 | 0.0 | 0.0 | 0.00 | 0.00 | 0.00 | 64 | 1013.5 |
| 20260505234503 | 1 | 271 | 0.0 | 0.0 | 0.00 | 0.00 | 0.00 | 61 | 1013.4 |
| 20260505233001 | 1 | 183 | 0.0 | 0.0 | 0.00 | 0.00 | 0.00 | 63 | 1013.4 |
| 20260505231600 | 1 | 185 | 0.0 | 0.0 | 0.00 | 0.00 | 0.00 | 60 | 1013.4 |
| 20260505230101 | 1 | 188 | 0.0 | 0.0 | 0.00 | 0.00 | 0.00 | 59 | 1013.4 |
| 20260505224555 | 2 | 186 | 0.0 | 0.0 | 0.00 | 0.00 | 0.00 | 57 | 1013.3 |
| 20260505223051 | 3 | 226 | 1.6 | 9.7 | 0.00 | 0.00 | 0.00 | 53 | 1013.1 |
| 20260505221600 | 3 | 232 | 0.0 | 0.0 | 0.00 | 0.00 | 0.00 | 51 | 1013.1 |
| 20260505220056 | 4 | 251 | 0.0 | 16.1 | 0.00 | 0.00 | 0.00 | 48 | 1013.0 |
| 20260505214551 | 5 | 293 | 1.6 | 17.7 | 0.00 | 0.00 | 0.00 | 46 | 1012.9 |
| 20260505213041 | 5 | 272 | 6.4 | 14.5 | 0.00 | 0.00 | 0.00 | 47 | 1012.8 |
| 20260505211542 | 5 | 246 | 6.4 | 14.5 | 0.00 | 0.00 | 0.00 | 47 | 1012.8 |
| 20260505210047 | 5 | 238 | 9.7 | 14.5 | 0.00 | 0.00 | 0.00 | 48 | 1012.7 |
| 20260505204550 | 5 | 225 | 4.8 | 14.5 | 0.00 | 0.00 | 0.00 | 45 | 1012.6 |
| 20260505203036 | 6 | 327 | 4.8 | 16.1 | 0.00 | 0.00 | 0.00 | 44 | 1012.4 |
| 20260505201538 | 6 | 239 | 0.0 | 16.1 | 0.00 | 0.00 | 0.00 | 45 | 1012.2 |
| 20260505200032 | 6 | 251 | 0.0 | 12.9 | 0.00 | 0.00 | 0.00 | 44 | 1012.0 |
| 20260505194530 | 6 | 226 | 3.2 | 9.7 | 0.00 | 0.00 | 0.00 | 42 | 1011.8 |
| 20260505193035 | 7 | 300 | 0.0 | 8.0 | 0.00 | 0.00 | 0.00 | 39 | 1011.6 |
| 20260505191526 | 7 | 334 | 3.2 | 9.7 | 0.00 | 0.00 | 0.00 | 37 | 1011.3 |
| 20260505190024 | 8 | 321 | 0.0 | 9.7 | 0.00 | 0.00 | 0.00 | 37 | 1011.2 |
| 20260505184522 | 8 | 302 | 1.6 | 14.5 | 0.00 | 0.00 | 0.00 | 36 | 1011.0 |
| 20260505183031 | 8 | 282 | 0.0 | 14.5 | 0.00 | 0.00 | 0.00 | 35 | 1010.9 |
| 20260505181520 | 9 | 319 | 3.2 | 19.3 | 0.00 | 0.00 | 0.00 | 33 | 1010.7 |
| 20260505180021 | 9 | 322 | 1.6 | 8.0 | 0.00 | 0.00 | 0.00 | 33 | 1010.6 |
| 20260505174519 | 9 | 321 | 1.6 | 14.5 | 0.00 | 0.00 | 0.00 | 31 | 1010.7 |
| 20260505173017 | 9 | 319 | 0.0 | 9.7 | 0.00 | 0.00 | 0.00 | 30 | 1010.5 |
| 20260505171517 | 10 | 306 | 0.0 | 14.5 | 0.00 | 0.00 | 0.00 | 28 | 1010.5 |
| 20260505170017 | 10 | 338 | 4.8 | 17.7 | 0.00 | 0.00 | 0.00 | 27 | 1010.4 |
| 20260505164516 | 11 | 300 | 3.2 | 19.3 | 0.00 | 0.00 | 0.00 | 25 | 1010.4 |
| 20260505163015 | 11 | 268 | 6.4 | 14.5 | 0.00 | 0.00 | 0.00 | 23 | 1010.4 |
| 20260505161514 | 11 | 261 | 4.8 | 24.1 | 0.00 | 0.00 | 0.00 | 23 | 1010.4 |
| 20260505153013 | 12 | 246 | 8.0 | 24.1 | 0.00 | 0.00 | 0.00 | 21 | 1010.3 |
| 20260505151512 | 12 | 302 | 6.4 | 22.5 | 0.00 | 0.00 | 0.00 | 22 | 1010.2 |
| 20260505124503 | 12 | 296 | 1.6 | 25.7 | 0.00 | 0.00 | 0.00 | 25 | 1010.1 |
| 20260505123000 | 12 | 287 | 4.8 | 35.4 | 0.00 | 0.00 | 0.00 | 25 | 1010.2 |
| 20260505121559 | 11 | 320 | 0.0 | 20.9 | 0.00 | 0.00 | 0.00 | 23 | 1010.1 |
| 20260505120106 | 11 | 215 | 12.9 | 27.4 | 0.00 | 0.00 | 0.00 | 23 | 1009.9 |
| 20260505114557 | 11 | 234 | 12.9 | 20.9 | 0.00 | 0.00 | 0.00 | 26 | 1010.0 |
| 20260505113112 | 11 | 261 | 1.6 | 16.1 | 0.00 | 0.00 | 0.00 | 24 | 1010.1 |
| 20260505111553 | 11 | 287 | 6.4 | 16.1 | 0.00 | 0.00 | 0.00 | 25 | 1010.2 |
| 20260505101546 | 10 | 209 | 6.4 | 20.9 | 0.00 | 0.00 | 0.00 | 28 | 1010.6 |
| 20260505100044 | 9 | 210 | 0.0 | 19.3 | 0.00 | 0.00 | 0.00 | 30 | 1010.5 |
| 20260505094545 | 9 | 184 | 0.0 | 22.5 | 0.00 | 0.00 | 0.00 | 30 | 1010.5 |
| 20260505093043 | 9 | 298 | 1.6 | 14.5 | 0.00 | 0.00 | 0.00 | 31 | 1010.6 |
| 20260505091538 | 8 | 324 | 0.0 | 9.7 | 0.00 | 0.00 | 0.00 | 33 | 1010.6 |
| 20260505090035 | 8 | 256 | 0.0 | 14.5 | 0.00 | 0.00 | 0.00 | 33 | 1010.6 |
| 20260505084543 | 8 | 300 | 0.0 | 12.9 | 0.00 | 0.00 | 0.00 | 34 | 1010.7 |
| 20260505083031 | 7 | 316 | 0.0 | 17.7 | 0.00 | 0.00 | 0.00 | 36 | 1010.7 |
| 20260505081528 | 8 | 345 | 0.0 | 16.1 | 0.00 | 0.00 | 0.00 | 37 | 1010.6 |
| 20260505080027 | 7 | 339 | 0.0 | 12.9 | 0.00 | 0.00 | 0.00 | 39 | 1010.8 |
| 20260505074520 | 7 | 347 | 1.6 | 9.7 | 0.00 | 0.00 | 0.00 | 40 | 1010.9 |
| 20260505073016 | 6 | 17 | 1.6 | 9.7 | 0.00 | 0.00 | 0.00 | 45 | 1010.8 |
| 20260505071513 | 5 | 25 | 0.0 | 1.6 | 0.00 | 0.00 | 0.00 | 46 | 1010.7 |
| 20260505070012 | 5 | 6 | 0.0 | 1.6 | 0.00 | 0.00 | 0.00 | 47 | 1010.8 |
| 20260505064511 | 5 | 292 | 4.8 | 16.1 | 0.00 | 0.00 | 0.00 | 46 | 1010.8 |
| 20260505063010 | 5 | 265 | 0.0 | 9.7 | 0.00 | 0.00 | 0.00 | 48 | 1010.8 |
| 20260505061515 | 3 | 215 | 0.0 | 9.7 | 0.00 | 0.00 | 0.00 | 54 | 1010.8 |
| 20260505060011 | 3 | 205 | 0.0 | 0.0 | 0.00 | 0.00 | 0.00 | 60 | 1010.9 |
| 20260505054508 | 2 | 211 | 0.0 | 0.0 | 0.00 | 0.00 | 0.00 | 62 | 1010.9 |
| 20260505053007 | 1 | 209 | 0.0 | 0.0 | 0.00 | 0.00 | 0.00 | 66 | 1010.9 |
| 20260505051508 | 1 | 207 | 0.0 | 0.0 | 0.00 | 0.00 | 0.00 | 67 | 1010.8 |
| 20260505041600 | 0 | 278 | 0.0 | 0.0 | 0.00 | 0.00 | 0.00 | 71 | 1010.4 |
| 20260505040058 | 0 | 275 | 0.0 | 0.0 | 0.00 | 0.00 | 0.00 | 71 | 1010.3 |
| 20260505034616 | -1 | 220 | 0.0 | 0.0 | 0.00 | 0.00 | 0.00 | 72 | 1010.2 |
| 20260505033056 | -1 | 220 | 0.0 | 0.0 | 0.00 | 0.00 | 0.00 | 71 | 1010.1 |
| 20260505031555 | -1 | 220 | 0.0 | 0.0 | 0.00 | 0.00 | 0.00 | 71 | 1010.1 |
| 20260505030051 | 0 | 220 | 0.0 | 0.0 | 0.00 | 0.00 | 0.00 | 69 | 1010.0 |
| 20260505024547 | 0 | 220 | 0.0 | 0.0 | 0.00 | 0.00 | 0.00 | 67 | 1009.9 |
| 20260505023048 | 0 | 220 | 0.0 | 0.0 | 0.00 | 0.00 | 0.00 | 66 | 1009.9 |
| 20260505021543 | 0 | 225 | 0.0 | 0.0 | 0.00 | 0.00 | 0.00 | 67 | 1009.9 |
| 20260505020040 | 0 | 225 | 0.0 | 0.0 | 0.00 | 0.00 | 0.00 | 64 | 1009.6 |
| 20260505014537 | 1 | 225 | 0.0 | 0.0 | 0.00 | 0.00 | 0.00 | 59 | 1009.6 |
| 20260505013033 | 2 | 202 | 0.0 | 0.0 | 0.00 | 0.00 | 0.00 | 54 | 1009.4 |
| 20260505011552 | 3 | 215 | 4.8 | 12.9 | 0.00 | 0.00 | 0.00 | 50 | 1009.2 |
| 20260505010029 | 3 | 289 | 3.2 | 16.1 | 0.00 | 0.00 | 0.00 | 49 | 1009.1 |
| 20260505004528 | 3 | 337 | 0.0 | 6.4 | 0.00 | 0.00 | 0.00 | 52 | 1009.1 |
| 20260505003026 | 2 | 296 | 0.0 | 0.0 | 0.00 | 0.00 | 0.00 | 56 | 1009.0 |